Weather History for Northeast Philadelphia, PA

Change the Weather History Date:

Wednesday, October 2, 2013

  Actual Average Record
Temperature  
Mean Temperature 72 °F -  
Max Temperature 84 °F 68 °F 86 °F (2002)
Min Temperature 60 °F 48 °F 37 °F (1997)
Cooling Degree Days 7    
Growing Degree Days 22 (Base 50)    
Moisture  
Dew Point 60 °F    
Average Humidity 68    
Maximum Humidity 90    
Minimum Humidity 44    
Precipitation  
Precipitation 0.00 in - - ()
Sea Level Pressure  
Sea Level Pressure 30.01 in    
Wind  
Wind Speed 5 mph (West)    
Max Wind Speed 15 mph    
Max Gust Speed -    
Visibility 9 miles    
Events      
Averages and records for this station are not official NWS values.
T = Trace of Precipitation, MM = Missing Value Source: NWS Daily Summary

Daily Weather History Graph

Daily Weather History Graph

Search for Another Location

Airport:

Trip Planner

Search our weather history database for the weather conditions in past years. The results will help you decide how hot, cold, wet, or windy it might be!

Date:

Astronomy

Oct. 02, 2013 Rise Set
Actual Time 6:57 AM EDT 6:40 PM EDT
Civil Twilight 6:30 AM EDT 7:07 PM EDT
Nautical Twilight 5:59 AM EDT 7:38 PM EDT
Astronomical Twilight 5:27 AM EDT 8:10 PM EDT
Moon 4:28 AM EDT (10/2) 5:15 PM EDT (10/2)
Length of Visible Light 12h 36m
Length of Day
11h 42m
Waning Crescent, 6% of the Moon is Illuminated
Oct 2
Waning Crescent
Oct 4
New
Oct 11
First Quarter
Oct 18
Full
Oct 26
Last Quarter

Hourly Weather History & Observations

Time (EDT) Temp. Heat Index Dew Point Humidity Pressure Visibility Wind Dir Wind Speed Gust Speed Precip Events Conditions
12:54 AM 63.0 °F - 57.9 °F 84% 29.99 in 8.0 mi West 4.6 mph - N/A   Clear
1:54 AM 62.1 °F - 57.9 °F 86% 30.00 in 7.0 mi Calm Calm - N/A   Clear
2:54 AM 60.1 °F - 57.0 °F 90% 30.00 in 6.0 mi Calm Calm - N/A   Clear
3:54 AM 62.1 °F - 57.9 °F 86% 29.99 in 7.0 mi Calm Calm - N/A   Clear
4:54 AM 60.1 °F - 55.9 °F 86% 30.00 in 7.0 mi WNW 4.6 mph - N/A   Clear
5:54 AM 60.1 °F - 57.0 °F 90% 30.01 in 7.0 mi West 4.6 mph - N/A   Clear
6:54 AM 60.1 °F - 55.9 °F 86% 30.02 in 7.0 mi West 5.8 mph - N/A   Clear
7:54 AM 64.0 °F - 57.9 °F 80% 30.03 in 6.0 mi West 3.5 mph - N/A   Haze
8:54 AM 70.0 °F - 60.1 °F 71% 30.04 in 7.0 mi WSW 4.6 mph - N/A   Clear
9:54 AM 75.0 °F - 60.1 °F 60% 30.05 in 10.0 mi West 8.1 mph - N/A   Clear
10:54 AM 77.0 °F - 61.0 °F 58% 30.05 in 10.0 mi West 11.5 mph - N/A   Clear
11:54 AM 80.1 °F 81.1 °F 61.0 °F 52% 30.04 in 10.0 mi West 12.7 mph - N/A   Clear
12:54 PM 81.0 °F 81.7 °F 61.0 °F 50% 30.01 in 10.0 mi West 9.2 mph - N/A   Clear
1:54 PM 82.9 °F 83.2 °F 60.1 °F 46% 29.99 in 10.0 mi West 13.8 mph - N/A   Clear
2:54 PM 84.0 °F 84.4 °F 61.0 °F 46% 29.98 in 10.0 mi WNW 15.0 mph - N/A   Clear
3:54 PM 84.0 °F 84.0 °F 60.1 °F 44% 29.97 in 10.0 mi WNW 11.5 mph - N/A   Clear
4:54 PM 84.0 °F 84.0 °F 60.1 °F 44% 29.96 in 10.0 mi West 9.2 mph - N/A   Clear
5:54 PM 82.9 °F 83.2 °F 60.1 °F 46% 29.97 in 10.0 mi West 9.2 mph - N/A   Clear
6:54 PM 78.1 °F - 61.0 °F 56% 29.99 in 10.0 mi WSW 4.6 mph - N/A   Clear
7:54 PM 75.9 °F - 61.0 °F 60% 30.00 in 10.0 mi WSW 4.6 mph - N/A   Clear
8:54 PM 73.0 °F - 62.1 °F 68% 30.01 in 10.0 mi West 4.6 mph - N/A   Clear
9:54 PM 71.1 °F - 62.1 °F 73% 30.02 in 10.0 mi West 3.5 mph - N/A   Clear
10:54 PM 69.1 °F - 63.0 °F 81% 30.04 in 10.0 mi Calm Calm - N/A   Clear
11:54 PM 68.0 °F - 62.1 °F 81% 30.04 in 8.0 mi Calm Calm - N/A   Clear